Date String (YYYY-MM-DD hh:mm:ss) UTC,Instrument flags,Ambient pressure (hPa),Sample flow (lpm),Bypass flow (lpm),Sample temperature (°C),Ambient temperature (°C),ASC tube jacket temperature (°C),LED temperature (°C),Box temperature (°C),Sample RH (%),Span deviation,Mass concentration (μg/m³),Mass concentration (μg/m³),Mass concentration (μg/m³)
DateTimeUTC,F1_M11,P_M11,Q1_M11,Q2_M11,T1_M11,T2_M11,T3_M11,T4_M11,T5_M11,U1_M11,ZSPAN_M11,X0_M11,X2_M11,X1_M11
2022-08-13 00:00:00,,0829.0,5.00,0.00,29.1,27.9,00.0,37.9,31.1,27.2,0000.0,0017.17,0004.84,0003.79
2022-08-13 00:01:00,,0829.0,5.00,0.00,29.2,28.1,00.0,37.9,31.2,26.7,0000.0,0017.55,0004.86,0003.79
2022-08-13 00:02:00,,0829.0,5.00,0.00,29.3,28.2,00.0,37.9,31.3,26.6,0000.0,0017.39,0004.88,0003.80
2022-08-13 00:03:00,,0829.1,5.00,0.00,29.3,27.8,00.0,37.9,31.1,26.9,0000.0,0018.28,0004.87,0003.80
2022-08-13 00:04:00,,0829.1,5.00,0.00,29.2,27.3,00.0,37.9,30.9,26.8,0000.0,0018.28,0004.84,0003.81
2022-08-13 00:05:00,,0829.0,5.01,0.00,29.2,27.2,00.0,37.9,30.9,26.7,0000.0,0018.44,0004.83,0003.82
2022-08-13 00:06:00,,0829.0,4.99,0.00,29.1,27.3,00.0,37.9,30.9,26.8,0000.0,0017.76,0004.84,0003.83
2022-08-13 00:07:00,,0829.1,5.01,0.00,29.1,27.4,00.0,37.9,30.9,27.2,0000.0,0017.74,0004.84,0003.83
2022-08-13 00:08:00,,0829.0,5.00,0.00,29.1,27.7,00.0,37.9,31.0,27.0,0000.0,0018.17,0004.85,0003.83
2022-08-13 00:09:00,,0829.1,4.99,0.00,29.2,27.9,00.0,37.9,31.1,26.6,0000.0,0017.53,0004.85,0003.82
2022-08-13 00:10:00,,0829.1,5.01,0.00,29.2,28.1,00.0,37.9,31.2,26.7,0000.0,0017.57,0004.91,0003.83
2022-08-13 00:11:00,,0829.1,5.00,0.00,29.3,28.0,00.0,37.9,31.2,26.8,0000.0,0017.11,0004.94,0003.85
2022-08-13 00:12:00,,0829.1,4.99,0.00,29.2,27.4,00.0,37.9,31.0,26.8,0000.0,0015.41,0004.91,0003.85
2022-08-13 00:13:00,,0829.1,5.01,0.00,29.2,27.1,00.0,37.9,30.9,27.5,0000.0,0015.16,0004.91,0003.84
2022-08-13 00:14:00,,0829.1,5.00,0.00,29.1,27.1,00.0,37.8,30.9,27.2,0000.0,0013.69,0004.88,0003.84
2022-08-13 00:15:00,,0829.1,5.00,0.00,29.1,27.3,00.0,37.8,30.9,27.2,0000.0,0013.45,0004.89,0003.85
2022-08-13 00:16:00,,0829.1,5.00,0.00,29.1,27.5,00.0,37.9,30.9,26.6,0000.0,0012.35,0004.85,0003.84
2022-08-13 00:17:00,,0829.0,5.02,0.00,29.1,27.7,00.0,37.9,31.0,26.4,0000.0,0012.83,0004.87,0003.85
2022-08-13 00:18:00,,0829.1,5.00,0.00,29.2,28.0,00.0,37.9,31.1,26.3,0000.0,0014.06,0004.85,0003.86
2022-08-13 00:19:00,,0829.1,5.00,0.00,29.2,28.2,00.0,37.9,31.2,26.4,0000.0,0014.07,0004.86,0003.87
2022-08-13 00:20:00,,0829.0,4.99,0.00,29.3,28.1,00.0,37.9,31.2,26.1,0000.0,0014.90,0004.83,0003.88
2022-08-13 00:21:00,,0829.1,5.00,0.00,29.2,27.5,00.0,37.9,31.0,26.2,0000.0,0015.37,0004.83,0003.87
2022-08-13 00:22:00,,0829.0,5.00,0.00,29.2,27.2,00.0,37.9,30.9,26.3,0000.0,0014.95,0004.85,0003.88
2022-08-13 00:23:00,,0829.0,4.99,0.00,29.2,27.2,00.0,37.9,30.9,26.4,0000.0,0015.53,0004.88,0003.89
2022-08-13 00:24:00,,0829.0,5.00,0.00,29.1,27.3,00.0,37.9,30.9,26.4,0000.0,0016.33,0004.93,0003.90
2022-08-13 00:25:00,,0829.0,5.01,0.00,29.1,27.5,00.0,37.9,31.0,26.5,0000.0,0018.08,0005.00,0003.92
2022-08-13 00:26:00,,0829.0,5.00,0.00,29.2,27.8,00.0,37.9,31.1,26.6,0000.0,0018.08,0005.03,0003.93
2022-08-13 00:27:00,,0829.0,5.01,0.00,29.2,28.0,00.0,37.9,31.2,27.0,0000.0,0018.08,0005.06,0003.93
2022-08-13 00:28:00,,0829.0,5.00,0.00,29.3,28.2,00.0,37.9,31.3,27.4,0000.0,0018.12,0005.09,0003.93
2022-08-13 00:29:00,,0829.0,4.99,0.00,29.3,28.2,00.0,37.9,31.3,26.7,0000.0,0016.83,0005.12,0003.92
2022-08-13 00:30:00,,0829.0,5.01,0.00,29.3,27.7,00.0,37.9,31.1,26.9,0000.0,0016.64,0005.10,0003.91
2022-08-13 00:31:00,,0829.0,5.00,0.00,29.2,27.3,00.0,37.9,30.9,26.6,0000.0,0017.07,0005.17,0003.92
2022-08-13 00:32:00,,0828.9,4.99,0.00,29.2,27.2,00.0,37.9,30.9,27.0,0000.0,0016.92,0005.14,0003.93
2022-08-13 00:33:00,,0828.9,5.00,0.00,29.1,27.4,00.0,37.9,30.9,26.9,0000.0,0017.81,0005.11,0003.93
2022-08-13 00:34:00,,0828.9,5.00,0.00,29.1,27.6,00.0,37.9,31.0,27.0,0000.0,0018.13,0005.14,0003.92
2022-08-13 00:35:00,,0828.9,4.99,0.00,29.2,27.8,00.0,37.9,31.1,28.5,0000.0,0018.05,0005.11,0003.91
2022-08-13 00:36:00,,0828.9,5.00,0.00,29.2,28.0,00.0,37.9,31.2,29.2,0000.0,0017.05,0005.09,0003.90
2022-08-13 00:37:00,,0828.9,4.99,0.00,29.3,28.2,00.0,38.0,31.2,29.5,0000.0,0017.47,0005.09,0003.89
2022-08-13 00:38:00,,0828.8,5.01,0.00,29.3,27.9,00.0,37.9,31.1,30.1,0000.0,0018.22,0005.10,0003.87
2022-08-13 00:39:00,,0828.8,5.00,0.00,29.2,27.3,00.0,37.9,31.0,28.8,0000.0,0019.32,0005.09,0003.85
2022-08-13 00:40:00,,0828.9,5.01,0.00,29.2,27.1,00.0,37.9,30.9,28.3,0000.0,0019.85,0005.05,0003.84
2022-08-13 00:41:00,,0829.0,4.99,0.00,29.1,27.2,00.0,37.9,30.9,29.0,0000.0,0020.49,0005.03,0003.83
2022-08-13 00:42:00,,0828.9,5.01,0.00,29.1,27.4,00.0,37.9,30.9,29.6,0000.0,0020.21,0004.99,0003.82
2022-08-13 00:43:00,,0829.1,4.99,0.00,29.1,27.6,00.0,37.9,31.0,28.7,0000.0,0019.28,0004.98,0003.79
2022-08-13 00:44:00,,0829.0,4.99,0.00,29.2,27.8,00.0,37.9,31.1,28.4,0000.0,0017.48,0005.01,0003.77
2022-08-13 00:45:00,,0828.9,5.00,0.00,29.2,28.0,00.0,37.9,31.2,27.2,0000.0,0016.59,0004.94,0003.74
2022-08-13 00:46:00,,0829.2,5.00,0.00,29.3,28.2,00.0,37.9,31.3,27.1,0000.0,0016.14,0004.95,0003.72
2022-08-13 00:47:00,,0829.3,5.01,0.00,29.3,28.0,00.0,37.9,31.2,27.5,0000.0,0015.62,0004.92,0003.70
2022-08-13 00:48:00,,0829.3,4.99,0.00,29.3,27.5,00.0,37.9,31.0,27.9,0000.0,0015.19,0004.87,0003.69
2022-08-13 00:49:00,,0829.3,5.01,0.00,29.2,27.3,00.0,37.9,31.0,28.5,0000.0,0014.64,0004.86,0003.69
2022-08-13 00:50:00,,0829.3,4.99,0.00,29.2,27.3,00.0,37.9,30.9,28.9,0000.0,0013.55,0004.83,0003.70
2022-08-13 00:51:00,,0829.3,5.00,0.00,29.1,27.5,00.0,37.9,30.9,29.2,0000.0,0012.61,0004.82,0003.69
2022-08-13 00:52:00,,0829.1,4.99,0.00,29.2,27.7,00.0,37.9,31.0,29.4,0000.0,0012.12,0004.86,0003.69
2022-08-13 00:53:00,,0828.7,5.00,0.00,29.2,27.9,00.0,37.9,31.1,29.2,0000.0,0011.41,0004.84,0003.68
2022-08-13 00:54:00,,0828.7,5.00,0.00,29.3,28.1,00.0,37.9,31.2,28.2,0000.0,0011.80,0004.84,0003.68
2022-08-13 00:55:00,,0828.7,5.01,0.00,29.3,28.3,00.0,38.0,31.3,27.4,0000.0,0011.92,0004.83,0003.68
2022-08-13 00:56:00,,0828.7,5.00,0.00,29.3,28.1,00.0,38.0,31.3,27.9,0000.0,0011.94,0004.84,0003.68
2022-08-13 00:57:00,,0828.8,5.01,0.00,29.3,27.5,00.0,37.9,31.0,28.1,0000.0,0011.92,0004.80,0003.68
2022-08-13 00:58:00,,0828.8,4.99,0.00,29.2,27.3,00.0,37.9,31.0,28.1,0000.0,0012.04,0004.78,0003.67
2022-08-13 00:59:00,,0828.8,5.01,0.00,29.2,27.3,00.0,37.9,31.0,28.5,0000.0,0012.01,0004.79,0003.67
